Flag for Gambia Weather past 2 weeks in Serekunda, Gambia

Now
72 °F

Clear.


Feels Like: 77 °F
Forecast: 67 / 83 °F
Wind: No wind

Location: Banjul / Yundum

Current Time: Dec 22, 2014 at 9:23:14 AM

Latest Report: Dec 22, 2014 at 9:00 AM


Visibility: 6 mi

Pressure: 29.92 "Hg

Humidity: 50%

Dew point: 52 °F

Location of SerekundaLocation

Historic Weather in Serekunda — Graph

°F

Serekunda temperature yesterday

Maximum temperature yesterday: 90 °F (at 4:00 PM)
Minimum temperature yesterday: 63 °F (at 5:00 AM)
Average temperature yesterday: 73 °F

Past Weeks' High & Low Weather Summary

 TemperatureHumidityPressure
High93 °F (Dec 9, 3:00 PM)100% (Dec 9, 5:00 AM)32.75 "Hg (Dec 9, 5:00 AM)
Low61 °F (Dec 13, 7:00 AM)12% (Dec 13, 11:00 AM)29.77 "Hg (Dec 8, 4:00 PM)
Average75 °F46%29.89 "Hg
* Reported Dec 7 8:00 AM — Dec 22 8:00 AM, Serekunda, Weather by CustomWeather, © 2014

Note: Actual official high and low records may vary slightly from our data, if they occured in-between our weather recording intervals... More about our weather records

Advertising

Serekunda weather history for previous 24 hours

 ConditionsComfort  
Time TempWeatherWind HumidityBarometerVisibility
8:00 AM
Dec 22
63 °FMild.No wind77%29.89 "Hg6 mi
7:00 AM63 °FMild.No wind73%29.89 "Hg6 mi
6:00 AM64 °FPassing clouds.No wind73%29.86 "Hg6 mi
5:00 AM64 °FPassing clouds.6 mph73%29.92 "Hg6 mi
4:00 AM66 °FPassing clouds.No wind73%29.89 "Hg6 mi
3:00 AM66 °FPassing clouds.No wind78%29.89 "Hg6 mi
2:00 AM68 °FPassing clouds.No wind78%29.89 "Hg6 mi
1:00 AM68 °FPassing clouds.No wind83%29.89 "Hg6 mi
12:00 AM70 °FPassing clouds.No wind78%29.89 "Hg6 mi
11:00 PM
Dec 21
72 °FMild.No wind53%29.86 "Hg6 mi
10:00 PM70 °FMild.6 mph64%29.89 "Hg6 mi
9:00 PM72 °FMild.No wind53%29.89 "Hg6 mi
8:00 PM75 °FPassing clouds.7 mph44%29.86 "Hg6 mi
7:00 PM77 °FClear.No wind51%29.86 "Hg6 mi
6:00 PM81 °FClear.No wind42%29.86 "Hg6 mi
5:00 PM88 °FClear.No wind25%29.86 "Hg6 mi
4:00 PM90 °FClear.5 mph24%29.86 "Hg6 mi
3:00 PM86 °FClear.6 mph24%29.86 "Hg6 mi
2:00 PM88 °FClear.9 mph22%29.89 "Hg6 mi
1:00 PM84 °FClear.9 mph25%29.89 "Hg6 mi
12:00 PM81 °FClear.12 mph28%29.92 "Hg6 mi
11:00 AM79 °FClear.9 mph28%29.92 "Hg6 mi
10:00 AM73 °FClear.8 mph31%29.95 "Hg6 mi
9:00 AM66 °FClear.N/A49%29.92 "HgN/A
Weather by CustomWeather, © 2014

See weather overviewHow to use our weather pages